YMA7562 ENBO-ENGM

Flight info

Callsign YMA7562
Flight time N/A
Altitude 32000
Route ENBO DISMU VFL TORMO BELGU ENGM
Aircraft B738/M-VGDW/C

Departure

Time 2026-04-28 09:21
Airport Bodø Airport (ENBO)

Arrival

Time N/A
Airport Oslo-Gardermoen International Airport (ENGM)
Time Latitude Longitude Altitude Speed Heading
2026-04-28 09:04 67.27191 14.36930 51 ft 0 kts 291°
2026-04-28 09:13 67.27183 14.36979 52 ft 3 kts 291°
2026-04-28 09:14 67.27178 14.37016 52 ft 2 kts 287°
2026-04-28 09:14 67.27176 14.37045 52 ft 1 kts 270°
2026-04-28 09:14 67.27177 14.37069 52 ft 1 kts 253°
2026-04-28 09:14 67.27181 14.37090 52 ft 1 kts 237°
2026-04-28 09:15 67.27185 14.37106 52 ft 1 kts 222°
2026-04-28 09:15 67.27190 14.37117 52 ft 0 kts 210°
2026-04-28 09:16 67.27187 14.37113 52 ft 3 kts 206°
2026-04-28 09:16 67.27150 14.37087 53 ft 7 kts 192°
2026-04-28 09:17 67.27082 14.36941 56 ft 19 kts 249°
2026-04-28 09:17 67.27055 14.36587 52 ft 20 kts 259°
2026-04-28 09:17 67.27028 14.36221 49 ft 21 kts 258°
2026-04-28 09:17 67.27002 14.35851 46 ft 21 kts 259°
2026-04-28 09:18 67.26975 14.35487 47 ft 19 kts 259°
2026-04-28 09:18 67.26945 14.35140 44 ft 20 kts 257°
2026-04-28 09:18 67.26911 14.34778 40 ft 21 kts 258°
2026-04-28 09:18 67.26877 14.34386 31 ft 24 kts 256°
2026-04-28 09:19 67.26846 14.33945 23 ft 26 kts 257°
2026-04-28 09:19 67.26811 14.33542 16 ft 19 kts 253°
2026-04-28 09:19 67.26769 14.33403 13 ft 5 kts 199°
2026-04-28 09:19 67.26734 14.33402 13 ft 3 kts 169°
2026-04-28 09:20 67.26713 14.33413 13 ft 3 kts 167°
2026-04-28 09:20 67.26672 14.33497 15 ft 13 kts 101°
2026-04-28 09:20 67.26681 14.33660 21 ft 11 kts 78°
2026-04-28 09:20 67.26721 14.34189 34 ft 62 kts 81°
2026-04-28 09:21 67.26869 14.35940 56 ft 137 kts 78°
2026-04-28 09:21 67.27132 14.38747 394 ft 170 kts 75°
2026-04-28 09:21 67.27404 14.41638 1162 ft 178 kts 77°
2026-04-28 09:21 67.27672 14.45037 1753 ft 207 kts 78°
2026-04-28 09:22 67.27950 14.48779 2175 ft 217 kts 78°
2026-04-28 09:22 67.28130 14.52590 2167 ft 213 kts 90°
2026-04-28 09:22 67.27743 14.56190 2188 ft 212 kts 126°
2026-04-28 09:22 67.26566 14.58298 2219 ft 212 kts 169°
2026-04-28 09:23 67.25095 14.58602 2183 ft 222 kts 177°
2026-04-28 09:23 67.23407 14.58779 2268 ft 256 kts 178°
2026-04-28 09:23 67.21617 14.58957 2209 ft 257 kts 178°
2026-04-28 09:23 67.19854 14.59135 2186 ft 253 kts 178°
2026-04-28 09:24 67.18102 14.59315 2182 ft 252 kts 178°
2026-04-28 09:24 67.16693 14.59315 2161 ft 1 kts 181°
2026-04-28 09:24 67.16694 14.59315 2160 ft 0 kts 181°
2026-04-28 09:25 67.27190 14.36933 51 ft 0 kts 291°
2026-04-28 09:29 67.27190 14.36939 51 ft 2 kts 291°
2026-04-28 09:29 67.27184 14.36973 52 ft 0 kts 291°
2026-04-28 09:29 67.27187 14.36966 52 ft 1 kts 323°
2026-04-28 09:29 67.27196 14.36973 51 ft 1 kts 43°
2026-04-28 09:30 67.27200 14.37000 51 ft 0 kts 95°
2026-04-28 09:30 67.27199 14.37003 51 ft 0 kts 100°
2026-04-28 09:31 67.27189 14.37032 52 ft 7 kts 145°
2026-04-28 09:31 67.27119 14.37242 55 ft 18 kts 105°
2026-04-28 09:31 67.27132 14.37534 57 ft 15 kts 77°
2026-04-28 09:32 67.27154 14.37794 59 ft 13 kts 77°
2026-04-28 09:32 67.27165 14.38018 59 ft 12 kts 89°
2026-04-28 09:32 67.27165 14.38147 59 ft 0 kts 91°
2026-04-28 09:32 67.27165 14.38148 59 ft 1 kts 91°
2026-04-28 09:33 67.27148 14.38329 59 ft 15 kts 126°
2026-04-28 09:33 67.27083 14.38384 59 ft 10 kts 229°
2026-04-28 09:33 67.27070 14.38297 59 ft 0 kts 256°
2026-04-28 09:34 67.27070 14.38296 59 ft 0 kts 256°
2026-04-28 09:35 67.27027 14.37813 62 ft 67 kts 257°
2026-04-28 09:35 67.26870 14.35907 60 ft 143 kts 257°
2026-04-28 09:36 67.26666 14.33275 678 ft 151 kts 258°
2026-04-28 09:36 67.26472 14.30737 1538 ft 143 kts 258°
2026-04-28 09:36 67.26251 14.28117 2086 ft 158 kts 257°
2026-04-28 09:36 67.25995 14.25231 2654 ft 175 kts 258°
2026-04-28 09:37 67.25704 14.22052 3225 ft 192 kts 257°
2026-04-28 09:37 67.25071 14.18896 3769 ft 208 kts 227°
2026-04-28 09:37 67.23943 14.16525 4294 ft 213 kts 206°
2026-04-28 09:37 67.22593 14.15053 4793 ft 216 kts 204°
2026-04-28 09:38 67.21114 14.13497 5329 ft 247 kts 204°
2026-04-28 09:38 67.19412 14.11709 5928 ft 278 kts 204°
2026-04-28 09:38 67.17614 14.09838 6465 ft 282 kts 204°
2026-04-28 09:38 67.15791 14.07955 6982 ft 284 kts 204°
2026-04-28 09:39 67.13970 14.06092 7491 ft 287 kts 203°
2026-04-28 09:39 67.12006 14.05060 8036 ft 293 kts 186°
2026-04-28 09:39 67.09956 14.04615 8558 ft 298 kts 186°
2026-04-28 09:39 67.07881 14.04176 9078 ft 302 kts 186°
2026-04-28 09:40 67.05810 14.03740 9588 ft 305 kts 186°
2026-04-28 09:40 67.03670 14.03287 10122 ft 307 kts 186°
2026-04-28 09:40 67.01543 14.02844 10633 ft 311 kts 186°
2026-04-28 09:40 66.99377 14.02402 11157 ft 314 kts 186°
2026-04-28 09:41 66.97201 14.01964 11680 ft 318 kts 185°
2026-04-28 09:41 66.94982 14.01519 12216 ft 322 kts 186°
2026-04-28 09:41 66.92767 14.01085 12752 ft 325 kts 186°
2026-04-28 09:41 66.90474 14.00647 13302 ft 329 kts 186°
2026-04-28 09:42 66.88210 14.00227 13823 ft 333 kts 185°
2026-04-28 09:42 66.85885 13.99785 14342 ft 337 kts 186°
2026-04-28 09:42 66.83540 13.99356 14854 ft 339 kts 186°
2026-04-28 09:42 66.81182 13.98930 15365 ft 343 kts 186°
2026-04-28 09:43 66.78812 13.98494 15873 ft 344 kts 186°
2026-04-28 09:43 66.76422 13.97986 16386 ft 347 kts 186°
2026-04-28 09:43 66.74027 13.97459 16888 ft 351 kts 186°
2026-04-28 09:43 66.71576 13.96919 17404 ft 352 kts 187°
2026-04-28 09:44 66.69159 13.96387 17903 ft 357 kts 186°
2026-04-28 09:44 66.66680 13.95825 18406 ft 359 kts 187°
2026-04-28 09:44 66.64175 13.95267 18910 ft 363 kts 186°
2026-04-28 09:44 66.61668 13.94694 19403 ft 366 kts 188°
2026-04-28 09:45 66.59121 13.93854 19901 ft 371 kts 189°
2026-04-28 09:45 66.56569 13.93012 20403 ft 374 kts 189°
2026-04-28 09:45 66.53981 13.92168 20915 ft 378 kts 189°
2026-04-28 09:45 66.51387 13.91067 21394 ft 379 kts 200°
2026-04-28 09:46 66.48853 13.89113 21924 ft 384 kts 202°
2026-04-28 09:46 66.46290 13.86957 22454 ft 398 kts 202°
2026-04-28 09:46 66.43631 13.84654 22978 ft 411 kts 205°
2026-04-28 09:46 66.40941 13.82063 23511 ft 424 kts 206°
2026-04-28 09:47 66.38165 13.79388 24036 ft 437 kts 206°
2026-04-28 09:47 66.35278 13.76642 24567 ft 450 kts 206°
2026-04-28 09:47 66.32315 13.73827 25100 ft 463 kts 206°
2026-04-28 09:47 66.29279 13.70975 25625 ft 472 kts 205°
2026-04-28 09:48 66.26187 13.68098 26150 ft 481 kts 205°
2026-04-28 09:48 66.23072 13.65201 26665 ft 480 kts 206°
2026-04-28 09:48 66.19958 13.62345 27179 ft 480 kts 205°
2026-04-28 09:48 66.16878 13.59575 27691 ft 478 kts 206°
2026-04-28 09:49 66.13762 13.56776 28209 ft 480 kts 206°
2026-04-28 09:49 66.10639 13.54001 28731 ft 483 kts 206°
2026-04-28 09:49 66.07510 13.51243 29243 ft 484 kts 206°
2026-04-28 09:49 66.04329 13.48487 29768 ft 484 kts 206°
2026-04-28 09:50 66.01204 13.45789 30280 ft 486 kts 205°
2026-04-28 09:50 65.97993 13.43019 30811 ft 487 kts 205°
2026-04-28 09:50 65.94824 13.40316 31313 ft 487 kts 205°
2026-04-28 09:50 65.91640 13.37615 31828 ft 485 kts 205°
2026-04-28 09:51 65.88500 13.34922 32307 ft 485 kts 204°
2026-04-28 09:51 65.85280 13.32170 32401 ft 490 kts 205°
2026-04-28 09:51 65.78912 13.26694 32418 ft 487 kts 205°
2026-04-28 09:52 65.72603 13.21321 32422 ft 485 kts 205°
2026-04-28 09:52 65.66237 13.15983 32409 ft 486 kts 205°
2026-04-28 09:53 65.59903 13.10652 32383 ft 488 kts 205°
2026-04-28 09:53 65.53529 13.05324 32349 ft 487 kts 205°
2026-04-28 09:54 65.47199 13.00026 32313 ft 492 kts 205°
2026-04-28 09:54 65.43970 12.97306 32335 ft 508 kts 205°
2026-04-28 09:54 65.40624 12.94468 32332 ft 525 kts 205°
2026-04-28 09:55 65.37118 12.91635 32357 ft 542 kts 203°
2026-04-28 09:55 65.33497 12.88815 32350 ft 552 kts 202°
2026-04-28 09:55 65.26334 12.83262 32378 ft 542 kts 203°
2026-04-28 09:56 65.19232 12.77803 32373 ft 540 kts 203°
2026-04-28 09:56 65.12086 12.72324 32365 ft 544 kts 203°
2026-04-28 09:57 65.04973 12.66841 32362 ft 542 kts 202°
2026-04-28 09:57 64.97846 12.61417 32357 ft 543 kts 202°
2026-04-28 09:58 64.90749 12.56072 32353 ft 541 kts 202°
2026-04-28 09:58 64.83647 12.50705 32325 ft 543 kts 202°
2026-04-28 09:59 64.76508 12.45320 32314 ft 542 kts 202°
2026-04-28 09:59 64.69350 12.39958 32334 ft 542 kts 203°
2026-04-28 10:00 64.62210 12.34582 32374 ft 544 kts 202°
2026-04-28 10:00 64.55173 12.29268 32400 ft 542 kts 202°
2026-04-28 10:01 64.48069 12.23896 32411 ft 543 kts 202°
2026-04-28 10:01 64.40882 12.18907 32424 ft 545 kts 198°
2026-04-28 10:02 64.33539 12.14735 32425 ft 545 kts 197°
2026-04-28 10:02 64.26198 12.10568 32413 ft 547 kts 197°
2026-04-28 10:03 64.18901 12.06493 32394 ft 546 kts 197°
2026-04-28 10:03 64.11628 12.02409 32392 ft 548 kts 197°
2026-04-28 10:04 64.05212 11.98790 32400 ft 548 kts 197°
2026-04-28 10:04 63.97881 11.94664 32411 ft 548 kts 197°
2026-04-28 10:05 63.90533 11.90521 32407 ft 548 kts 197°
2026-04-28 10:05 63.83248 11.86443 32391 ft 548 kts 197°
2026-04-28 10:06 63.75930 11.82361 32392 ft 549 kts 197°
2026-04-28 10:06 63.68583 11.78291 32389 ft 549 kts 197°
2026-04-28 10:07 63.61262 11.74225 32389 ft 551 kts 197°
2026-04-28 10:07 63.53942 11.70198 32376 ft 549 kts 197°
2026-04-28 10:08 63.46532 11.66109 32368 ft 550 kts 197°
2026-04-28 10:08 63.39145 11.62007 32367 ft 551 kts 197°
2026-04-28 10:09 63.31749 11.57926 32355 ft 551 kts 197°
2026-04-28 10:09 63.24368 11.53868 32343 ft 551 kts 197°
2026-04-28 10:10 63.17009 11.49842 32328 ft 550 kts 197°
2026-04-28 10:10 63.09685 11.45840 32333 ft 551 kts 197°
2026-04-28 10:11 63.02313 11.41817 32326 ft 552 kts 197°
2026-04-28 10:11 62.94942 11.38004 32318 ft 551 kts 197°
2026-04-28 10:12 62.87684 11.34281 32307 ft 553 kts 195°
2026-04-28 10:12 62.80282 11.30471 32313 ft 551 kts 195°
2026-04-28 10:13 62.73002 11.26737 32318 ft 553 kts 195°
2026-04-28 10:13 62.65637 11.22923 32366 ft 552 kts 195°
2026-04-28 10:14 62.58249 11.19085 32376 ft 552 kts 195°
2026-04-28 10:14 62.50832 11.15293 32376 ft 552 kts 195°
2026-04-28 10:15 62.43385 11.11456 32359 ft 551 kts 195°
2026-04-28 10:15 62.35927 11.08247 32340 ft 554 kts 192°
2026-04-28 10:16 62.28457 11.05194 32305 ft 554 kts 192°
2026-04-28 10:16 62.20932 11.02093 32291 ft 555 kts 192°
2026-04-28 10:17 62.06508 10.96123 32314 ft 553 kts 192°
2026-04-28 10:18 61.99194 10.93064 32328 ft 555 kts 192°
2026-04-28 10:18 61.91707 10.89963 32339 ft 554 kts 192°
2026-04-28 10:19 61.84335 10.86962 32334 ft 553 kts 192°
2026-04-28 10:19 61.75690 10.83431 32356 ft 553 kts 192°
2026-04-28 10:20 61.69536 10.80895 32325 ft 546 kts 192°
2026-04-28 10:20 61.65900 10.79421 31454 ft 544 kts 193°
2026-04-28 10:20 61.62205 10.77929 30140 ft 550 kts 192°
2026-04-28 10:21 61.58558 10.76443 29848 ft 531 kts 192°
2026-04-28 10:21 61.55001 10.75036 29213 ft 524 kts 192°